Location: Juzet
(42.9779°N, 0.7597°E)
Time: 19:12:45
(UTC+00:00)

Meteor 1-25 Rocket - Pass Details

Date: 14 July 2020
Orbit: 837 x 891 km, 81.2° (Epoch: 11 August)

Event Time Altitude Azimuth Distance (km) Brightness Sun altitude
Exits shadow 00:47:43 61° 162° (SSE) 959 4.1 -24.6°
Maximum altitude 00:48:40 77° 98° (E) 872 4.2 -24.5°
Drops below altitude 10° 00:54:15 10° 13° (NNE) 2,466 7.7 -24.3°
Sets 00:56:40 0° 12° (NNE) 3,402 8.8 -24.2°
